7 * 24
多渠道服务支持
STARLINK-36777(NORAD ID 100626)是美国太空探索技术公司(SpaceX)星链低轨互联网星座中的一颗卫星。该卫星属于大规模部署的星链星座序列,运行于近地轨道,核心功能为通过低轨组网提供高速、低延迟的全球卫星互联网服务,覆盖传统地面网络难以触达的偏远、海洋及航空区域,同时也可支撑应急通信等场景,是SpaceX构建全球天地一体化通信网络的组成单元。
美国
(US)
| 数据来源 | 国际轨道数据 |
| 星历时间: | 2026-09-12T06:38:10+0800 7小时前 查看轨道信息 |
| 半长轴: | 6665.455km |
| 偏心率: | 0.0005215 |
| 轨道倾角: | 69.997° |
| 近地点辐角 | 301.361° |
| 升交点赤经 | 262.202° |
| 平近点角 | 58.709° |
| 近地点: | 283.841km |
| 远地点: | 290.795km |
| 周期: | 90.262分钟 |
| 每日圈数: | 15.953578 |